K8JCL-13 Weather Reports


time (UTC)temp
C
wind
direction
speed
KPH
gust
KPH
rain 1hr
cm
rain 24hr
cm
rain mn
cm
humidity
%
barometer
mb
20260903010852 28 29 0.0 0.0 0.00 0.00 0.00 81 1016.4
20260903010347 28 38 0.0 0.0 0.00 0.00 0.00 81 1016.5
20260903005845 28 24 0.0 0.0 0.00 0.00 0.00 81 1016.4
20260903005340 28 29 0.0 0.0 0.00 0.00 0.00 80 1016.3
20260903004837 28 35 0.0 0.0 0.00 0.00 0.00 80 1016.4
20260903004332 28 15 0.0 0.0 0.00 0.00 0.00 80 1016.3
20260903003827 28 16 0.0 0.0 0.00 0.00 0.00 79 1016.3
20260903003322 28 38 0.0 0.0 0.00 0.00 0.00 79 1016.3
20260903002822 28 28 0.0 0.0 0.00 0.00 0.00 78 1016.3
20260903002322 28 34 0.0 0.0 0.00 0.00 0.00 78 1016.4
20260903001816 29 25 0.0 0.0 0.00 0.00 0.00 77 1016.3
20260903001312 29 7 0.0 0.0 0.00 0.00 0.00 76 1016.1
20260903000811 30 24 0.0 0.0 0.00 0.00 0.00 75 1016.0
20260903000306 30 359 0.0 0.0 0.00 0.00 0.00 75 1016.4
20260902235804 30 22 0.0 0.0 0.00 0.00 0.00 75 1016.0
20260902235300 30 18 0.0 0.0 0.00 0.00 0.00 74 1016.1
20260902234754 30 25 0.0 0.0 0.00 0.00 0.00 73 1016.3
20260902234253 30 17 0.0 0.0 0.00 0.00 0.00 73 1016.3
20260902233747 30 92 0.0 0.0 0.00 0.00 0.00 73 1016.1
20260902233242 30 200 0.0 0.0 0.00 0.00 0.00 72 1016.3
20260902232740 30 52 0.0 0.0 0.00 0.00 0.00 71 1016.1
20260902232235 31 21 0.0 1.6 0.00 0.00 0.00 71 1016.2
20260902231735 31 43 0.0 0.0 0.00 0.00 0.00 71 1016.0
20260902231230 31 62 1.6 3.2 0.00 0.00 0.00 69 1016.3
20260902230725 31 25 0.0 0.0 0.00 0.00 0.00 69 1016.0
20260902230224 31 43 0.0 0.0 0.00 0.00 0.00 69 1016.1
20260902225719 31 342 0.0 0.0 0.00 0.00 0.00 69 1016.1
20260902225219 31 99 0.0 1.6 0.00 0.00 0.00 69 1016.3
20260902224717 31 62 0.0 0.0 0.00 0.00 0.00 68 1016.2
20260902224213 31 49 0.0 0.0 0.00 0.00 0.00 68 1016.2
20260902223709 31 64 1.6 1.6 0.00 0.00 0.00 68 1016.3
20260902223208 32 344 0.0 0.0 0.00 0.00 0.00 68 1016.3
20260902222707 32 343 1.6 3.2 0.00 0.00 0.00 67 1016.3
20260902222207 32 93 1.6 1.6 0.00 0.00 0.00 66 1016.2
20260902221701 32 126 3.2 4.8 0.00 0.00 0.00 66 1016.2
20260902221154 32 303 1.6 1.6 0.00 0.00 0.00 67 1016.3
20260902220650 32 92 1.6 1.6 0.00 0.00 0.00 65 1016.4
20260902220145 32 214 1.6 1.6 0.00 0.00 0.00 66 1016.5
20260902215641 32 131 0.0 0.0 0.00 0.00 0.00 66 1016.6
20260902215137 32 21 0.0 0.0 0.00 0.00 0.00 67 1016.4
20260902214631 32 137 0.0 1.6 0.00 0.00 0.00 66 1016.5
20260902214131 32 44 0.0 0.0 0.00 0.00 0.00 66 1016.3
20260902213626 32 356 0.0 1.6 0.00 0.00 0.00 64 1016.3
20260902213124 32 52 1.6 1.6 0.00 0.00 0.00 66 1016.3
20260902212615 32 66 0.0 1.6 0.00 0.00 0.00 66 1016.5
20260902212110 32 12 0.0 1.6 0.00 0.00 0.00 65 1016.7
20260902211607 32 358 4.8 4.8 0.00 0.00 0.00 64 1016.7
20260902211056 32 51 0.0 0.0 0.00 0.00 0.00 65 1016.4
20260902210555 32 331 4.8 4.8 0.00 0.00 0.00 63 1016.8
20260902210050 33 41 0.0 0.0 0.00 0.00 0.00 66 1016.7
20260902205549 32 318 0.0 0.0 0.00 0.00 0.00 65 1016.6
20260902205044 32 28 0.0 0.0 0.00 0.00 0.00 64 1016.6
20260902204539 33 249 1.6 1.6 0.00 0.00 0.00 64 1016.9
20260902204034 32 66 0.0 0.0 0.00 0.00 0.00 65 1016.7
20260902203529 33 11 0.0 0.0 0.00 0.00 0.00 65 1017.0
20260902203028 33 14 0.0 0.0 0.00 0.00 0.00 65 1016.9
20260902202524 33 12 0.0 1.6 0.00 0.00 0.00 64 1016.9
20260902202020 33 291 3.2 8.0 0.00 0.00 0.00 63 1016.9
20260902201515 33 297 1.6 1.6 0.00 0.00 0.00 63 1017.1
20260902201009 33 340 0.0 1.6 0.00 0.00 0.00 64 1016.8
20260902200504 33 19 6.4 8.0 0.00 0.00 0.00 62 1016.9
20260902200000 33 32 0.0 0.0 0.00 0.00 0.00 64 1017.0
20260902195456 34 79 3.2 4.8 0.00 0.00 0.00 62 1016.9
20260902194949 34 348 0.0 1.6 0.00 0.00 0.00 60 1017.0
20260902194449 34 220 1.6 1.6 0.00 0.00 0.00 60 1017.2
20260902193945 34 129 1.6 1.6 0.00 0.00 0.00 62 1017.2
20260902193440 34 12 1.6 1.6 0.00 0.00 0.00 63 1017.4
20260902192939 33 344 0.0 0.0 0.00 0.00 0.00 63 1017.4
20260902192437 34 5 3.2 4.8 0.00 0.00 0.00 60 1017.6
20260902191936 33 288 4.8 4.8 0.00 0.00 0.00 60 1017.5
20260902191432 34 23 0.0 1.6 0.00 0.00 0.00 60 1017.6
20260902190927 34 349 3.2 3.2 0.00 0.00 0.00 58 1017.6
20260902190422 34 314 1.6 1.6 0.00 0.00 0.00 58 1017.5
20260902185918 35 292 3.2 3.2 0.00 0.00 0.00 60 1017.8
20260902185415 34 357 3.2 3.2 0.00 0.00 0.00 60 1017.8
20260902184915 35 9 0.0 1.6 0.00 0.00 0.00 61 1017.6
20260902184409 34 359 0.0 0.0 0.00 0.00 0.00 58 1017.8
20260902183906 33 87 0.0 0.0 0.00 0.00 0.00 62 1017.9
20260902183402 35 48 1.6 1.6 0.00 0.00 0.00 59 1017.9
20260902182857 35 339 1.6 1.6 0.00 0.00 0.00 60 1018.1
20260902182354 35 52 0.0 1.6 0.00 0.00 0.00 61 1017.8
20260902181850 35 303 3.2 4.8 0.00 0.00 0.00 60 1018.1
20260902181345 35 289 1.6 1.6 0.00 0.00 0.00 59 1017.8
20260902180839 35 22 0.0 1.6 0.00 0.00 0.00 62 1017.9
20260902180335 33 115 1.6 3.2 0.00 0.00 0.00 65 1018.0
20260902175830 33 358 4.8 4.8 0.00 0.00 0.00 63 1018.2
20260902175325 33 319 1.6 1.6 0.00 0.00 0.00 62 1018.1
20260902174820 35 290 1.6 1.6 0.00 0.00 0.00 61 1018.3
20260902174317 34 301 4.8 4.8 0.00 0.00 0.00 61 1018.2
20260902173813 33 265 4.8 8.0 0.00 0.00 0.00 67 1018.4
20260902173307 33 96 1.6 3.2 0.00 0.00 0.00 62 1018.3
20260902172801 33 349 3.2 3.2 0.00 0.00 0.00 63 1018.6
20260902172255 33 309 3.2 3.2 0.00 0.00 0.00 64 1018.8
20260902171750 33 2 1.6 1.6 0.00 0.00 0.00 67 1018.7
20260902171246 33 298 6.4 8.0 0.00 0.00 0.00 65 1018.7
20260902170742 33 1 0.0 1.6 0.00 0.00 0.00 66 1018.8
20260902170237 34 282 4.8 8.0 0.00 0.00 0.00 64 1018.7
20260902165732 34 275 1.6 3.2 0.00 0.00 0.00 66 1018.6
20260902165226 34 41 0.0 0.0 0.00 0.00 0.00 67 1018.7
20260902164720 33 333 1.6 1.6 0.00 0.00 0.00 67 1018.6
20260902164214 33 4 0.0 0.0 0.00 0.00 0.00 65 1018.8
20260902163709 33 313 1.6 1.6 0.00 0.00 0.00 68 1018.8
20260902163204 33 318 3.2 3.2 0.00 0.00 0.00 66 1018.8
20260902162702 33 116 0.0 1.6 0.00 0.00 0.00 67 1018.8
20260902162156 33 144 1.6 3.2 0.00 0.00 0.00 68 1018.7
20260902161652 32 4 0.0 0.0 0.00 0.00 0.00 71 1018.8
20260902161147 33 43 0.0 1.6 0.00 0.00 0.00 71 1018.8
20260902160645 33 143 1.6 1.6 0.00 0.00 0.00 67 1018.8
20260902160138 33 8 0.0 0.0 0.00 0.00 0.00 69 1018.9
20260902155637 32 304 1.6 1.6 0.00 0.00 0.00 70 1018.7
20260902155135 32 15 0.0 0.0 0.00 0.00 0.00 70 1018.8
20260902154630 32 335 1.6 1.6 0.00 0.00 0.00 70 1019.0
20260902154126 32 28 4.8 4.8 0.00 0.00 0.00 69 1018.8
20260902153625 32 184 1.6 1.6 0.00 0.00 0.00 70 1019.0
20260902153120 31 39 1.6 1.6 0.00 0.00 0.00 73 1018.9
20260902152616 31 57 0.0 0.0 0.00 0.00 0.00 73 1019.1
20260902152111 32 310 3.2 3.2 0.00 0.00 0.00 71 1019.0
20260902151607 31 320 1.6 3.2 0.00 0.00 0.00 72 1018.8
20260902151107 31 10 0.0 0.0 0.00 0.00 0.00 74 1019.1
20260902150601 31 303 1.6 3.2 0.00 0.00 0.00 73 1019.1
20260902150057 31 286 1.6 3.2 0.00 0.00 0.00 75 1019.1
20260902145552 31 283 1.6 1.6 0.00 0.00 0.00 71 1019.1
20260902145051 31 333 1.6 3.2 0.00 0.00 0.00 73 1019.1
20260902144548 30 286 1.6 1.6 0.00 0.00 0.00 74 1019.1
20260902144043 30 344 1.6 3.2 0.00 0.00 0.00 76 1019.2
20260902143537 30 343 3.2 3.2 0.00 0.00 0.00 75 1019.0
20260902143033 30 33 0.0 1.6 0.00 0.00 0.00 76 1019.2
20260902142528 30 344 1.6 1.6 0.00 0.00 0.00 76 1019.0
20260902142024 30 10 1.6 1.6 0.00 0.00 0.00 77 1019.0
20260902141524 30 333 1.6 1.6 0.00 0.00 0.00 76 1019.0
20260902141019 30 282 3.2 3.2 0.00 0.00 0.00 76 1019.1
20260902140514 30 329 1.6 1.6 0.00 0.00 0.00 77 1019.3
20260902140009 30 38 0.0 0.0 0.00 0.00 0.00 77 1018.9
20260902135504 29 17 0.0 1.6 0.00 0.00 0.00 78 1018.9
20260902135003 28 341 1.6 1.6 0.00 0.00 0.00 78 1018.9
20260902134500 29 9 0.0 0.0 0.00 0.00 0.00 78 1019.1
20260902133959 28 11 0.0 0.0 0.00 0.00 0.00 79 1019.0
20260902133454 29 271 1.6 3.2 0.00 0.00 0.00 76 1019.0
20260902132949 29 46 0.0 1.6 0.00 0.00 0.00 79 1018.9
20260902132444 28 53 0.0 0.0 0.00 0.00 0.00 80 1019.2
20260902131939 28 59 0.0 0.0 0.00 0.00 0.00 80 1019.0
20260902131436 28 337 0.0 1.6 0.00 0.00 0.00 80 1018.9
20260902130935 28 75 0.0 0.0 0.00 0.00 0.00 81 1019.1
20260902130432 28 1 0.0 0.0 0.00 0.00 0.00 80 1018.9
20260902125931 28 23 1.6 1.6 0.00 0.00 0.00 81 1018.9
20260902125427 28 337 1.6 1.6 0.00 0.00 0.00 80 1019.3
20260902124923 27 47 0.0 0.0 0.00 0.00 0.00 81 1019.1
20260902124419 27 98 0.0 0.0 0.00 0.00 0.00 82 1018.9
20260902123914 27 42 0.0 0.0 0.00 0.00 0.00 82 1018.8
20260902123410 27 76 1.6 1.6 0.00 0.00 0.00 83 1018.9
20260902122908 27 35 0.0 0.0 0.00 0.00 0.00 83 1018.8
20260902122404 27 54 0.0 0.0 0.00 0.00 0.00 84 1018.8
20260902121859 26 254 0.0 0.0 0.00 0.00 0.00 84 1018.8
20260902121354 26 25 0.0 1.6 0.00 0.00 0.00 85 1018.9
20260902120849 26 22 0.0 0.0 0.00 0.00 0.00 87 1018.9
20260902120346 25 41 0.0 0.0 0.00 0.00 0.00 88 1018.8
20260902115840 25 35 0.0 0.0 0.00 0.00 0.00 88 1018.7
20260902115337 25 35 0.0 0.0 0.00 0.00 0.00 89 1018.6
20260902114833 25 16 0.0 0.0 0.00 0.00 0.00 90 1018.5
20260902114328 24 39 0.0 0.0 0.00 0.00 0.00 91 1018.2
20260902113829 24 38 0.0 0.0 0.00 0.00 0.00 92 1018.3
20260902113325 23 38 0.0 0.0 0.00 0.00 0.00 92 1018.2
20260902112823 23 30 0.0 0.0 0.00 0.00 0.00 92 1018.3
20260902112320 23 52 0.0 0.0 0.00 0.00 0.00 93 1018.3
20260902111815 23 24 0.0 0.0 0.00 0.00 0.00 92 1018.3
20260902111312 23 21 0.0 0.0 0.00 0.00 0.00 93 1018.3
20260902110807 23 43 0.0 0.0 0.00 0.00 0.00 93 1018.3
20260902110303 23 29 0.0 0.0 0.00 0.00 0.00 93 1018.0
20260902105803 23 16 0.0 0.0 0.00 0.00 0.00 94 1018.1
20260902105258 23 17 0.0 0.0 0.00 0.00 0.00 94 1018.0
20260902104753 23 26 0.0 0.0 0.00 0.00 0.00 94 1018.2
20260902104249 23 19 0.0 0.0 0.00 0.00 0.00 94 1018.0
20260902103748 23 16 0.0 0.0 0.00 0.00 0.00 94 1018.1
20260902103243 23 13 0.0 0.0 0.00 0.00 0.00 94 1018.1
20260902102738 23 25 0.0 0.0 0.00 0.00 0.00 94 1018.0
20260902102236 23 28 0.0 0.0 0.00 0.00 0.00 95 1018.0
20260902101731 23 34 0.0 0.0 0.00 0.00 0.00 95 1018.1
20260902101226 23 24 0.0 0.0 0.00 0.00 0.00 95 1017.9
20260902100725 23 15 0.0 0.0 0.00 0.00 0.00 94 1018.0
20260902100220 23 350 0.0 0.0 0.00 0.00 0.00 94 1018.1
20260902095719 23 17 0.0 0.0 0.00 0.00 0.00 94 1018.0
20260902095214 23 14 0.0 0.0 0.00 0.00 0.00 94 1018.0
20260902094709 23 30 0.0 0.0 0.00 0.00 0.00 94 1018.3
20260902094206 23 32 0.0 0.0 0.00 0.00 0.00 94 1017.9
20260902093704 23 23 0.0 0.0 0.00 0.00 0.00 94 1017.9
20260902093159 23 28 0.0 0.0 0.00 0.00 0.00 94 1018.1
20260902092654 23 27 0.0 0.0 0.00 0.00 0.00 94 1018.0
20260902092149 23 24 0.0 0.0 0.00 0.00 0.00 94 1017.8
20260902091643 23 32 0.0 0.0 0.00 0.00 0.00 94 1017.9
20260902091140 23 25 0.0 0.0 0.00 0.00 0.00 94 1017.8
20260902090636 23 29 0.0 0.0 0.00 0.00 0.00 95 1017.9
20260902090134 23 26 0.0 0.0 0.00 0.00 0.00 95 1017.8
20260902085630 23 23 0.0 0.0 0.00 0.00 0.00 95 1017.8
20260902085124 23 27 0.0 0.0 0.00 0.00 0.00 95 1017.6
20260902084621 23 35 0.0 0.0 0.00 0.00 0.00 95 1017.7
20260902084116 23 27 0.0 0.0 0.00 0.00 0.00 95 1017.7
20260902083611 23 28 0.0 0.0 0.00 0.00 0.00 95 1017.8
20260902083110 23 24 0.0 0.0 0.00 0.00 0.00 95 1017.8
20260902082606 23 27 0.0 0.0 0.00 0.00 0.00 94 1017.7
20260902082103 23 27 0.0 0.0 0.00 0.00 0.00 94 1017.7
20260902081559 23 25 0.0 0.0 0.00 0.00 0.00 94 1017.2
20260902081059 23 26 0.0 0.0 0.00 0.00 0.00 94 1017.5
20260902080554 23 2 0.0 0.0 0.00 0.00 0.00 94 1017.6
20260902080051 23 38 0.0 0.0 0.00 0.00 0.00 94 1017.6
20260902075550 23 26 0.0 0.0 0.00 0.00 0.00 94 1017.6
20260902075047 23 26 0.0 0.0 0.00 0.00 0.00 94 1017.5
20260902074542 23 25 0.0 0.0 0.00 0.00 0.00 94 1017.7
20260902074037 23 27 0.0 0.0 0.00 0.00 0.00 94 1017.4
20260902073532 23 21 0.0 0.0 0.00 0.00 0.00 94 1017.5
20260902073029 23 21 0.0 0.0 0.00 0.00 0.00 94 1017.5
20260902072524 23 31 0.0 0.0 0.00 0.00 0.00 95 1017.2
20260902072021 23 31 0.0 0.0 0.00 0.00 0.00 95 1017.5
20260902071520 23 26 0.0 0.0 0.00 0.00 0.00 94 1017.5
20260902071017 23 12 0.0 0.0 0.00 0.00 0.00 94 1017.5
20260902070512 23 21 0.0 0.0 0.00 0.00 0.00 94 1017.4
20260902070011 23 29 0.0 0.0 0.00 0.00 0.00 94 1017.5
20260902065506 23 18 0.0 0.0 0.00 0.00 0.00 93 1017.5
20260902065001 23 13 0.0 0.0 0.00 0.00 0.00 93 1017.4
20260902064456 23 15 0.0 0.0 0.00 0.00 0.00 93 1017.5
20260902063952 24 23 0.0 0.0 0.00 0.00 0.00 93 1017.5
20260902063451 24 23 0.0 0.0 0.00 0.00 0.00 93 1017.6
20260902062947 24 21 0.0 0.0 0.00 0.00 0.00 92 1017.5
20260902062446 24 23 0.0 0.0 0.00 0.00 0.00 92 1017.7
20260902061941 24 21 0.0 0.0 0.00 0.00 0.00 92 1017.5
20260902061436 24 21 0.0 0.0 0.00 0.00 0.00 91 1017.6
20260902060932 24 24 0.0 0.0 0.00 0.00 0.00 91 1017.6
20260902060428 25 23 0.0 0.0 0.00 0.00 0.00 91 1017.7
20260902055924 25 22 0.0 0.0 0.00 0.00 0.00 90 1017.4
20260902055420 25 21 0.0 0.0 0.00 0.00 0.00 90 1017.5
20260902054915 25 17 0.0 0.0 0.00 0.00 0.00 90 1017.7
20260902054410 25 22 0.0 0.0 0.00 0.00 0.00 90 1017.6
20260902053905 25 19 0.0 0.0 0.00 0.00 0.00 89 1017.6
20260902053401 25 26 0.0 0.0 0.00 0.00 0.00 89 1017.6
20260902052859 25 40 0.0 0.0 0.00 0.00 0.00 89 1017.4
20260902052355 25 21 0.0 0.0 0.00 0.00 0.00 89 1017.5
20260902051850 25 29 0.0 0.0 0.00 0.00 0.00 89 1017.4
20260902051349 25 29 0.0 0.0 0.00 0.00 0.00 89 1017.5
20260902050844 25 26 0.0 0.0 0.00 0.00 0.00 89 1017.2
20260902050343 25 21 0.0 0.0 0.00 0.00 0.00 89 1017.4
20260902045838 25 27 0.0 0.0 0.00 0.00 0.00 88 1017.6
20260902045334 25 19 0.0 0.0 0.00 0.00 0.00 88 1017.6
20260902044831 25 26 0.0 0.0 0.00 0.00 0.00 88 1017.4
20260902044326 25 27 0.0 0.0 0.00 0.00 0.00 88 1017.7
20260902043827 25 26 0.0 0.0 0.00 0.00 0.00 88 1017.7
20260902043321 25 32 0.0 0.0 0.00 0.00 0.00 88 1017.4
20260902042820 25 27 0.0 0.0 0.00 0.00 0.00 88 1017.5
20260902042315 25 21 0.0 0.0 0.00 0.00 0.00 88 1017.7
20260902041811 25 26 0.0 0.0 0.00 0.00 0.00 88 1017.7
20260902041311 25 31 0.0 0.0 0.00 0.00 0.00 87 1017.8
20260902040809 25 32 0.0 0.0 0.00 0.00 0.00 87 1017.8
20260902040305 25 14 0.0 0.0 0.00 0.00 0.00 87 1017.8
20260902035804 25 26 0.0 0.0 0.00 0.00 0.00 87 1017.5
20260902035300 25 27 0.0 0.0 0.00 0.00 0.00 87 1017.6
20260902034758 25 22 0.0 0.0 0.00 0.00 0.00 87 1017.5
20260902034254 25 21 0.0 0.0 0.00 0.00 0.00 87 1017.5
20260902033751 25 23 0.0 0.0 0.00 0.00 0.00 87 1017.4
20260902033246 26 18 0.0 0.0 0.00 0.00 0.00 86 1017.5
20260902032739 26 24 0.0 0.0 0.00 0.00 0.00 86 1017.4
20260902032234 26 19 0.0 0.0 0.00 0.00 0.00 86 1017.5
20260902031734 26 18 0.0 0.0 0.00 0.00 0.00 85 1017.6
20260902031229 26 20 0.0 0.0 0.00 0.00 0.00 85 1017.7
20260902030725 26 21 0.0 0.0 0.00 0.00 0.00 85 1017.6
20260902030220 26 20 0.0 0.0 0.00 0.00 0.00 85 1017.4
20260902025719 26 18 0.0 0.0 0.00 0.00 0.00 85 1017.6
20260902025214 26 20 0.0 0.0 0.00 0.00 0.00 85 1017.6
20260902024709 26 26 0.0 0.0 0.00 0.00 0.00 86 1017.6
20260902024204 26 26 0.0 0.0 0.00 0.00 0.00 85 1017.4
20260902023700 26 26 0.0 0.0 0.00 0.00 0.00 85 1017.4
20260902023155 26 20 0.0 0.0 0.00 0.00 0.00 84 1017.7
20260902022654 26 20 0.0 0.0 0.00 0.00 0.00 84 1017.6
20260902022150 26 13 0.0 0.0 0.00 0.00 0.00 84 1017.5
20260902021646 26 28 0.0 0.0 0.00 0.00 0.00 84 1017.4
20260902021140 26 20 0.0 0.0 0.00 0.00 0.00 85 1017.2
20260902020637 26 26 0.0 0.0 0.00 0.00 0.00 85 1017.4
20260902020132 26 20 0.0 0.0 0.00 0.00 0.00 85 1017.4
20260902015627 26 24 0.0 0.0 0.00 0.00 0.00 85 1017.4
20260902015124 26 27 0.0 0.0 0.00 0.00 0.00 85 1017.2
20260902014619 27 27 0.0 0.0 0.00 0.00 0.00 85 1017.4
20260902014115 27 22 0.0 0.0 0.00 0.00 0.00 84 1017.2
20260902013614 27 29 0.0 0.0 0.00 0.00 0.00 84 1017.4
20260902013110 27 19 0.0 0.0 0.00 0.00 0.00 83 1017.5
20260902012605 27 36 0.0 0.0 0.00 0.00 0.00 83 1017.1
20260902012100 27 18 0.0 0.0 0.00 0.00 0.00 83 1017.4
20260902011555 27 25 0.0 0.0 0.00 0.00 0.00 82 1017.1